| time (UTC) | temp C | wind direction | speed KPH | gust KPH | rain 1hr cm | rain 24hr cm | rain mn cm | humidity % | barometer mb |
| 20260906131543 | 20 | 115 | 8.0 | 16.1 | 0.00 | 0.00 | 0.00 | 94 | 1019.5 |
| 20260906130040 | 19 | 116 | 6.4 | 16.1 | 0.00 | 0.00 | 0.00 | 94 | 1019.3 |
| 20260906124539 | 19 | 116 | 6.4 | 14.5 | 0.00 | 0.00 | 0.00 | 95 | 1019.3 |
| 20260906123037 | 19 | 105 | 8.0 | 17.7 | 0.00 | 0.00 | 0.00 | 95 | 1019.2 |
| 20260906121536 | 19 | 126 | 8.0 | 14.5 | 0.00 | 0.00 | 0.00 | 95 | 1019.0 |
| 20260906120034 | 20 | 117 | 9.7 | 16.1 | 0.00 | 0.00 | 0.00 | 95 | 1018.8 |
| 20260906114542 | 20 | 134 | 6.4 | 14.5 | 0.00 | 0.00 | 0.00 | 95 | 1018.8 |
| 20260906113028 | 20 | 131 | 8.0 | 16.1 | 0.00 | 0.00 | 0.00 | 95 | 1018.9 |
| 20260906111527 | 20 | 166 | 6.4 | 16.1 | 0.00 | 0.00 | 0.00 | 95 | 1018.8 |
| 20260906110024 | 20 | 147 | 9.7 | 17.7 | 0.00 | 0.00 | 0.00 | 95 | 1018.5 |
| 20260906104525 | 20 | 166 | 11.3 | 19.3 | 0.00 | 0.03 | 0.00 | 95 | 1018.5 |
| 20260906103020 | 20 | 143 | 4.8 | 14.5 | 0.00 | 0.03 | 0.00 | 95 | 1018.4 |
| 20260906101523 | 20 | 160 | 6.4 | 17.7 | 0.00 | 0.03 | 0.00 | 95 | 1018.3 |
| 20260906100024 | 20 | 130 | 9.7 | 17.7 | 0.00 | 0.03 | 0.00 | 95 | 1018.1 |
| 20260906094516 | 20 | 150 | 6.4 | 12.9 | 0.00 | 0.03 | 0.00 | 95 | 1018.1 |
| 20260906093015 | 20 | 138 | 4.8 | 11.3 | 0.00 | 0.03 | 0.00 | 95 | 1017.7 |
| 20260906091520 | 20 | 127 | 9.7 | 17.7 | 0.00 | 0.03 | 0.00 | 95 | 1017.4 |
| 20260906090015 | 20 | 110 | 9.7 | 14.5 | 0.00 | 0.03 | 0.00 | 95 | 1017.4 |
| 20260906084511 | 20 | 113 | 9.7 | 14.5 | 0.00 | 0.03 | 0.00 | 95 | 1017.3 |
| 20260906083007 | 20 | 115 | 8.0 | 12.9 | 0.00 | 0.03 | 0.00 | 94 | 1017.3 |
| 20260906081506 | 20 | 87 | 4.8 | 11.3 | 0.00 | 0.03 | 0.00 | 94 | 1017.5 |
| 20260906080005 | 20 | 86 | 6.4 | 12.9 | 0.00 | 0.03 | 0.00 | 94 | 1017.4 |
| 20260906074502 | 20 | 96 | 6.4 | 11.3 | 0.00 | 0.03 | 0.00 | 94 | 1017.4 |
| 20260906073001 | 20 | 109 | 4.8 | 9.7 | 0.00 | 0.03 | 0.00 | 93 | 1017.6 |
| 20260906071600 | 20 | 103 | 4.8 | 8.0 | 0.00 | 0.03 | 0.00 | 93 | 1017.8 |
| 20260906070059 | 20 | 125 | 6.4 | 12.9 | 0.00 | 0.03 | 0.00 | 93 | 1017.7 |
| 20260906064555 | 21 | 104 | 4.8 | 11.3 | 0.00 | 0.03 | 0.00 | 92 | 1017.9 |
| 20260906063054 | 21 | 96 | 8.0 | 12.9 | 0.00 | 0.03 | 0.00 | 93 | 1018.0 |
| 20260906061557 | 21 | 113 | 4.8 | 9.7 | 0.00 | 0.03 | 0.00 | 92 | 1018.0 |
| 20260906060052 | 21 | 80 | 3.2 | 6.4 | 0.00 | 0.03 | 0.00 | 92 | 1018.1 |
| 20260906054602 | 21 | 85 | 4.8 | 12.9 | 0.00 | 0.03 | 0.00 | 92 | 1018.0 |
| 20260906053057 | 21 | 96 | 3.2 | 11.3 | 0.00 | 0.03 | 0.00 | 92 | 1018.0 |
| 20260906051606 | 21 | 91 | 4.8 | 8.0 | 0.00 | 0.03 | 0.00 | 92 | 1017.9 |
| 20260906050046 | 21 | 61 | 3.2 | 9.7 | 0.00 | 0.03 | 0.00 | 92 | 1017.9 |
| 20260906044552 | 21 | 80 | 3.2 | 6.4 | 0.00 | 0.03 | 0.03 | 92 | 1017.8 |
| 20260906043046 | 21 | 88 | 3.2 | 9.7 | 0.00 | 0.03 | 0.03 | 92 | 1018.0 |
| 20260906041543 | 21 | 55 | 4.8 | 11.3 | 0.00 | 0.03 | 0.03 | 92 | 1018.1 |
| 20260906040121 | 21 | 89 | 3.2 | 9.7 | 0.00 | 0.03 | 0.03 | 93 | 1017.9 |
| 20260906034539 | 21 | 75 | 3.2 | 4.8 | 0.00 | 0.03 | 0.03 | 93 | 1017.9 |
| 20260906033051 | 22 | 96 | 3.2 | 6.4 | 0.00 | 0.03 | 0.03 | 93 | 1017.5 |
| 20260906031537 | 22 | 92 | 3.2 | 4.8 | 0.00 | 0.03 | 0.03 | 93 | 1017.5 |
| 20260906030036 | 22 | 92 | 1.6 | 3.2 | 0.00 | 0.03 | 0.03 | 92 | 1017.5 |
| 20260906024537 | 22 | 93 | 1.6 | 6.4 | 0.00 | 0.03 | 0.03 | 92 | 1017.4 |
| 20260906023035 | 22 | 92 | 4.8 | 11.3 | 0.00 | 0.03 | 0.03 | 92 | 1017.3 |
| 20260906021535 | 22 | 82 | 3.2 | 9.7 | 0.00 | 0.03 | 0.03 | 92 | 1017.1 |
| 20260906020035 | 22 | 102 | 3.2 | 6.4 | 0.00 | 0.03 | 0.03 | 92 | 1016.9 |
| 20260906014534 | 22 | 76 | 1.6 | 4.8 | 0.00 | 0.03 | 0.03 | 92 | 1016.7 |
| 20260906013034 | 22 | 77 | 1.6 | 4.8 | 0.00 | 0.03 | 0.03 | 91 | 1016.4 |
| 20260906011533 | 22 | 78 | 1.6 | 4.8 | 0.00 | 0.03 | 0.03 | 92 | 1016.2 |
| 20260906010032 | 22 | 79 | 1.6 | 3.2 | 0.00 | 0.03 | 0.03 | 91 | 1016.1 |
| 20260906004530 | 23 | 79 | 1.6 | 3.2 | 0.00 | 0.03 | 0.03 | 90 | 1015.8 |
| 20260906003030 | 23 | 79 | 0.0 | 6.4 | 0.00 | 0.03 | 0.03 | 89 | 1015.8 |
| 20260906001532 | 23 | 67 | 3.2 | 4.8 | 0.00 | 0.03 | 0.03 | 88 | 1015.5 |
| 20260906000029 | 23 | 67 | 1.6 | 4.8 | 0.00 | 0.03 | 0.03 | 88 | 1015.5 |
| 20260905234528 | 24 | 62 | 0.0 | 4.8 | 0.00 | 0.03 | 0.03 | 88 | 1015.5 |
| 20260905233028 | 24 | 69 | 1.6 | 6.4 | 0.00 | 0.03 | 0.03 | 87 | 1015.4 |
| 20260905231527 | 24 | 73 | 3.2 | 6.4 | 0.00 | 0.03 | 0.03 | 86 | 1015.4 |
| 20260905230027 | 24 | 96 | 6.4 | 14.5 | 0.00 | 0.03 | 0.03 | 85 | 1015.2 |
| 20260905224603 | 25 | 96 | 11.3 | 16.1 | 0.00 | 0.03 | 0.03 | 85 | 1015.0 |
| 20260905223026 | 25 | 99 | 9.7 | 14.5 | 0.00 | 0.03 | 0.03 | 85 | 1015.0 |
| 20260905221625 | 25 | 107 | 8.0 | 14.5 | 0.00 | 0.03 | 0.03 | 86 | 1015.0 |
| 20260905220025 | 25 | 78 | 6.4 | 11.3 | 0.00 | 0.03 | 0.03 | 85 | 1015.0 |
| 20260905214524 | 25 | 96 | 6.4 | 16.1 | 0.00 | 0.03 | 0.03 | 85 | 1015.0 |
| 20260905213022 | 24 | 86 | 8.0 | 14.5 | 0.00 | 0.03 | 0.03 | 86 | 1015.1 |
| 20260905211538 | 24 | 81 | 3.2 | 14.5 | 0.00 | 0.03 | 0.03 | 87 | 1015.3 |
| 20260905210034 | 24 | 83 | 8.0 | 14.5 | 0.00 | 0.03 | 0.03 | 87 | 1015.1 |
| 20260905204520 | 24 | 105 | 12.9 | 22.5 | 0.00 | 0.03 | 0.03 | 86 | 1015.2 |
| 20260905203018 | 24 | 67 | 8.0 | 17.7 | 0.00 | 0.03 | 0.03 | 87 | 1015.4 |
| 20260905201522 | 24 | 34 | 8.0 | 17.7 | 0.00 | 0.03 | 0.03 | 87 | 1015.5 |
| 20260905200022 | 25 | 32 | 11.3 | 20.9 | 0.00 | 0.03 | 0.03 | 87 | 1015.5 |
| 20260905194518 | 24 | 94 | 12.9 | 22.5 | 0.00 | 0.03 | 0.03 | 87 | 1015.6 |
| 20260905193014 | 24 | 51 | 8.0 | 14.5 | 0.00 | 0.03 | 0.03 | 88 | 1016.0 |
| 20260905191516 | 24 | 103 | 4.8 | 9.7 | 0.00 | 0.03 | 0.03 | 87 | 1016.5 |
| 20260905190010 | 23 | 15 | 3.2 | 8.0 | 0.00 | 0.03 | 0.03 | 88 | 1017.0 |
| 20260905184521 | 23 | 28 | 4.8 | 14.5 | 0.00 | 0.03 | 0.03 | 90 | 1017.1 |
| 20260905183006 | 23 | 59 | 8.0 | 17.7 | 0.00 | 0.03 | 0.03 | 91 | 1016.9 |
| 20260905181505 | 22 | 74 | 4.8 | 12.9 | 0.00 | 0.03 | 0.03 | 92 | 1017.2 |
| 20260905180006 | 22 | 62 | 3.2 | 12.9 | 0.00 | 0.03 | 0.03 | 91 | 1017.4 |
| 20260905174502 | 22 | 39 | 8.0 | 14.5 | 0.00 | 0.03 | 0.03 | 91 | 1017.3 |
| 20260905173130 | 22 | 16 | 4.8 | 12.9 | 0.00 | 0.03 | 0.03 | 92 | 1017.3 |
| 20260905171558 | 22 | 33 | 8.0 | 14.5 | 0.00 | 0.03 | 0.03 | 94 | 1017.2 |
| 20260905170112 | 22 | 59 | 6.4 | 17.7 | 0.00 | 0.03 | 0.03 | 96 | 1017.1 |
| 20260905164605 | 22 | 89 | 6.4 | 16.1 | 0.00 | 0.03 | 0.03 | 96 | 1017.2 |
| 20260905163054 | 22 | 56 | 6.4 | 16.1 | 0.00 | 0.03 | 0.03 | 97 | 1017.1 |
| 20260905161605 | 22 | 102 | 6.4 | 11.3 | 0.00 | 0.03 | 0.03 | 96 | 1017.0 |
| 20260905160050 | 22 | 88 | 8.0 | 16.1 | 0.00 | 0.03 | 0.03 | 96 | 1016.8 |
| 20260905154547 | 22 | 55 | 6.4 | 11.3 | 0.00 | 0.03 | 0.03 | 96 | 1016.9 |
| 20260905153047 | 22 | 69 | 8.0 | 16.1 | 0.00 | 0.03 | 0.03 | 96 | 1016.7 |
| 20260905151544 | 22 | 50 | 6.4 | 14.5 | 0.00 | 0.03 | 0.03 | 96 | 1016.6 |
| 20260905150043 | 22 | 49 | 6.4 | 12.9 | 0.00 | 0.03 | 0.03 | 96 | 1016.5 |
| 20260905144540 | 22 | 40 | 4.8 | 16.1 | 0.00 | 0.03 | 0.03 | 96 | 1016.3 |
| 20260905143037 | 22 | 41 | 8.0 | 16.1 | 0.00 | 0.03 | 0.03 | 96 | 1016.0 |
| 20260905141535 | 22 | 74 | 8.0 | 14.5 | 0.00 | 0.03 | 0.03 | 96 | 1015.7 |
| 20260905140035 | 22 | 45 | 8.0 | 14.5 | 0.00 | 0.03 | 0.03 | 96 | 1015.7 |
| 20260905134530 | 22 | 54 | 8.0 | 12.9 | 0.00 | 0.03 | 0.03 | 96 | 1015.4 |
| 20260905133035 | 22 | 40 | 6.4 | 14.5 | 0.00 | 0.03 | 0.03 | 96 | 1015.3 |